Theta_e
313 313 313 312 312 313 313 314 314 315 315 316 316 316 316 316 315 315 314 314 314 314 313 313 313 313 312 313 313 313 313 307 305 303 302 306 312 316 313 314 312 316 321 314 308 303 298 301 299 302 300 300 301 296 306 303 304 302 291 289 286 288 288 292 291 293 295 293 294 295 296 295 293 297 299 299 298 297 297 297 300 301 300 301 306 316 315 314
311 311 311 312 310 310 311 312 312 313 314 314 314 315 316 316 316 316 315 315 315 314 313 313 313 312 312 312 313 313 310 306 302 301 301 311 315 316 314 313 315 314 320 309 302 300 298 298 299 301 299 295 308 296 302 301 302 292 289 289 286 289 292 296 295 296 294 294 296 296 296 295 295 297 298 295 294 295 294 295 297 297 299 301 305 312 311 312
310 310 309 310 310 310 311 311 312 312 312 313 313 313 314 315 316 316 316 315 315 315 314 313 313 312 312 312 312 313 308 303 301 299 303 321 317 315 313 313 316 316 316 307 305 303 300 301 300 298 299 294 299 295 300 298 298 295 289 286 288 293 293 295 297 297 297 297 295 295 296 294 297 297 299 294 293 294 293 293 294 295 297 299 303 309 310 310
309 309 309 309 309 309 309 309 309 311 311 312 313 313 313 313 314 315 315 316 315 315 314 313 313 312 312 312 312 310 306 300 296 304 312 321 320 318 317 314 317 318 316 310 307 302 303 303 305 299 298 294 296 298 295 299 292 294 290 287 289 293 291 293 295 296 300 296 296 294 295 294 295 296 297 295 292 293 293 296 296 295 297 299 301 305 309 309
307 308 309 307 307 307 307 307 308 309 310 311 312 313 313 313 313 314 314 315 316 315 314 313 313 312 312 312 312 309 302 294 296 307 313 319 320 317 317 317 318 317 315 311 305 302 305 301 304 301 298 291 294 295 295 297 297 297 290 292 292 293 292 296 296 297 298 299 294 292 291 294 300 295 294 294 291 289 295 297 300 300 300 301 302 303 307 307
306 306 307 306 305 305 305 307 307 308 309 310 310 311 311 312 312 312 313 313 315 316 316 314 313 312 312 312 309 306 300 282 303 307 314 316 319 317 318 319 319 316 313 307 301 300 301 302 301 296 293 292 291 290 294 296 298 288 292 292 293 293 292 296 296 299 297 298 296 294 297 297 298 297 296 294 293 294 298 302 303 303 305 306 305 303 305 306
305 306 306 305 305 305 306 305 306 306 307 308 309 309 310 311 311 311 311 312 312 314 316 315 313 313 311 311 307 304 297 298 305 309 313 314 316 317 318 316 313 307 306 303 300 298 298 298 297 295 294 293 292 291 295 295 298 292 289 292 293 295 293 295 293 298 293 297 297 299 299 295 297 292 298 294 296 297 298 298 300 305 307 307 304 305 306 305
305 305 305 304 304 304 304 305 305 306 306 307 307 308 309 309 309 309 310 311 311 312 314 315 315 312 311 306 302 298 297 297 303 312 310 313 310 315 316 312 309 305 301 299 298 297 298 295 294 298 293 291 295 291 294 294 296 292 290 293 293 294 295 297 294 293 295 295 296 299 295 294 296 294 296 294 296 299 299 299 300 300 304 304 302 302 305 305
305 305 305 304 304 304 304 304 304 305 306 306 307 307 307 308 308 308 309 310 311 311 312 315 315 312 311 306 300 295 296 304 303 306 312 308 307 308 311 306 305 302 300 299 299 298 298 295 297 297 291 292 296 294 293 292 289 294 294 295 294 294 295 295 297 295 294 294 296 293 292 295 296 299 294 295 297 299 301 301 301 301 299 301 301 301 301 303
305 305 304 304 304 303 304 304 304 304 305 306 306 306 306 306 307 308 309 309 310 311 311 313 315 310 307 303 300 292 300 302 304 306 305 309 307 304 305 307 303 301 298 298 299 298 297 297 296 300 298 296 300 294 298 293 291 295 295 295 293 293 295 299 296 297 297 294 293 291 291 292 296 295 288 297 298 299 298 298 300 300 299 299 301 302 301 301
305 305 304 304 303 303 304 304 304 304 305 305 305 306 306 306 307 308 308 308 309 310 311 313 315 309 303 303 295 291 303 303 303 305 309 307 307 301 302 303 304 300 299 299 298 299 299 300 304 304 300 294 299 295 294 296 297 296 292 291 292 294 295 296 297 296 296 294 294 293 291 293 294 295 291 295 302 300 298 299 299 299 299 299 300 301 302 301
304 304 304 304 303 303 303 303 304 304 305 305 305 305 305 305 305 305 306 306 308 310 311 313 314 308 305 300 296 297 303 304 305 305 310 308 303 306 305 302 303 302 301 298 298 302 302 303 305 302 292 299 289 297 295 300 296 294 292 287 289 291 290 293 292 295 296 294 296 296 291 289 290 289 294 297 300 301 299 299 300 300 300 299 299 300 301 301
304 304 304 303 303 303 303 304 303 303 304 305 304 304 304 305 306 307 307 307 307 309 311 313 312 309 302 293 299 307 307 306 304 304 303 304 305 303 304 305 303 302 302 301 303 305 307 302 303 299 300 297 296 288 297 299 296 296 292 288 287 287 287 291 294 294 294 295 295 294 281 284 288 292 295 297 298 298 297 295 296 300 300 299 299 299 300 301
304 304 303 303 303 303 303 303 304 304 304 304 304 304 305 306 307 308 308 307 308 309 311 314 311 306 301 295 305 312 311 309 307 304 302 303 302 303 304 304 304 305 307 302 305 303 306 300 304 302 303 297 293 299 296 296 298 286 290 289 282 281 282 290 291 293 291 296 294 293 280 283 288 294 296 297 299 297 295 295 295 295 298 300 300 300 300 301
303 303 303 303 302 302 302 303 303 304 304 304 303 304 305 306 308 310 308 308 308 310 313 314 310 302 295 297 309 312 310 308 304 304 306 301 300 300 301 303 302 303 305 307 305 306 305 305 303 298 293 301 297 292 288 290 290 289 286 280 283 281 283 289 295 293 289 295 295 292 282 283 287 291 303 301 299 298 295 295 295 295 296 301 300 299 299 299
303 303 303 302 302 302 302 302 303 304 304 303 303 304 305 306 308 311 310 311 312 313 312 305 303 301 296 292 302 310 308 299 300 305 305 304 302 300 305 301 305 306 304 303 306 306 304 304 295 294 295 294 291 287 284 284 285 288 284 282 281 283 283 288 290 293 294 292 294 291 283 289 289 296 296 300 299 298 296 295 295 296 297 298 299 298 298 299
303 302 302 302 302 302 302 302 303 303 304 303 303 303 304 305 309 311 308 308 311 310 308 301 303 303 288 304 310 299 299 303 307 303 307 305 303 303 303 301 298 300 304 303 304 303 302 297 298 295 297 290 289 287 281 279 279 281 285 281 283 282 283 282 286 288 293 291 287 291 287 286 289 293 296 297 299 297 295 295 296 297 296 296 296 297 298 298
302 302 302 302 302 301 302 302 302 303 304 303 301 303 299 303 309 309 302 299 307 307 305 305 303 297 292 302 294 298 304 303 305 306 305 304 304 303 302 298 301 299 299 297 301 295 297 291 295 286 288 288 287 284 279 275 278 279 281 281 282 284 284 285 282 287 290 291 288 288 287 287 288 291 294 296 297 297 295 295 294 294 294 296 297 297 298 298
302 302 302 301 301 301 302 302 302 303 303 301 301 302 301 300 302 301 294 293 294 295 290 292 293 283 282 295 302 305 301 306 307 304 300 301 304 304 303 304 301 295 291 291 291 293 294 290 292 285 281 284 284 284 282 283 287 284 285 284 283 282 283 283 288 289 289 287 286 286 285 286 288 289 291 293 297 295 295 294 293 293 294 295 296 297 298 298
301 302 302 301 301 301 302 302 302 302 303 297 296 294 292 286 285 290 289 289 287 287 287 288 290 292 292 295 298 303 304 304 300 301 304 304 302 299 299 300 296 296 291 286 290 290 293 283 281 281 282 285 287 287 287 287 288 287 286 285 283 284 285 289 288 289 290 287 285 286 286 286 287 288 290 292 293 292 293 293 293 294 294 294 295 296 297 298
301 301 301 301 301 301 302 302 302 302 302 295 295 288 281 282 278 276 281 284 287 289 289 290 292 291 291 296 299 301 298 299 299 301 302 306 303 298 293 294 291 286 288 290 289 293 292 281 282 285 286 287 287 289 288 287 288 286 283 282 281 284 280 288 288 288 290 285 282 286 285 285 286 288 290 292 292 291 292 292 293 294 294 295 295 295 296 298
301 301 301 301 301 301 301 302 303 303 300 295 294 286 286 287 289 290 286 279 286 290 290 290 293 291 295 295 299 300 299 294 297 299 303 302 298 292 293 291 288 284 289 289 289 286 283 281 284 287 289 289 288 288 288 286 285 285 283 282 281 281 284 287 287 288 290 286 281 284 283 283 285 287 289 290 291 292 293 293 293 293 293 295 295 296 296 297
301 301 300 301 301 301 301 302 302 302 294 292 290 288 287 291 295 296 291 285 282 289 288 288 287 289 290 295 297 303 293 291 290 296 299 300 295 293 294 288 287 287 288 288 283 282 279 282 286 290 289 288 287 287 287 286 286 283 282 281 279 282 281 278 282 287 288 284 281 283 280 282 284 286 288 291 291 292 294 294 294 294 293 293 294 295 296 296
301 301 301 301 301 300 301 301 302 296 292 291 291 288 293 295 294 294 288 279 278 285 288 290 291 291 291 290 299 296 293 293 294 293 303 297 292 295 292 291 288 287 285 287 285 283 282 286 291 289 288 287 285 286 285 284 282 284 284 282 281 281 280 281 280 285 285 285 284 282 279 281 283 282 283 287 291 291 292 293 293 294 295 295 296 296 296 296
301 301 301 300 300 301 301 301 294 291 293 292 290 293 294 295 295 295 286 281 282 283 294 291 295 295 296 304 303 295 296 296 296 300 301 298 294 293 289 294 290 285 286 288 287 284 285 289 291 288 286 286 285 283 285 284 281 282 285 284 284 282 279 282 282 283 280 278 282 283 275 277 282 281 283 285 287 288 290 290 291 292 293 294 294 294 296 297
301 301 301 300 301 300 300 293 291 292 290 290 291 294 295 294 296 295 286 277 272 282 294 285 296 290 302 296 299 296 297 288 299 300 302 300 302 295 294 289 291 283 287 287 286 286 286 290 289 287 286 285 284 283 285 286 281 280 280 287 286 285 281 281 281 280 275 274 281 285 276 275 282 280 281 281 283 286 289 290 291 292 293 293 294 295 295 296
301 300 301 301 300 301 292 286 293 292 288 288 293 294 295 294 296 293 282 275 272 286 284 291 293 291 299 294 297 297 279 283 296 300 299 302 296 301 290 287 290 291 291 289 285 282 288 288 288 288 286 284 282 281 284 285 281 278 284 285 286 284 283 281 281 279 277 282 282 281 281 275 277 281 281 281 281 283 285 289 291 292 292 293 294 295 295 296
300 300 300 301 300 300 293 293 291 288 288 291 294 294 294 295 295 293 280 267 266 283 283 288 291 302 292 290 297 291 290 291 286 293 296 300 300 296 292 287 287 287 289 288 277 286 288 285 286 285 285 283 282 284 286 286 282 282 284 288 285 285 284 282 280 278 278 277 275 279 281 275 275 280 281 283 279 281 284 286 289 291 293 294 295 296 296 297
300 300 300 300 301 300 297 292 290 288 292 294 294 295 295 295 292 283 274 264 276 278 301 285 299 292 287 289 287 290 290 293 284 291 296 299 300 295 287 289 290 289 291 288 282 284 285 287 287 288 285 282 285 287 287 287 282 287 286 288 287 286 284 281 278 278 276 275 271 276 279 274 275 279 279 282 280 282 284 286 288 290 292 293 294 295 296 296
300 299 300 300 298 295 293 294 291 295 295 295 295 295 295 292 285 275 269 263 277 271 286 286 285 278 284 280 280 285 283 287 288 290 294 292 295 296 293 297 288 286 285 289 287 287 282 288 289 287 285 287 287 287 289 288 288 290 286 282 281 280 279 279 279 277 275 271 273 276 278 276 271 279 280 281 281 285 285 285 288 290 291 293 295 295 296 296
300 299 299 299 292 294 293 288 292 295 295 295 295 294 291 285 275 270 263 269 277 279 285 282 278 283 277 276 273 280 281 286 286 288 285 292 288 291 291 288 292 285 284 284 284 286 282 285 285 286 291 287 288 287 290 292 290 287 282 280 279 276 279 276 276 277 270 268 275 277 276 277 271 277 278 286 288 287 288 287 287 289 290 291 293 294 294 295
300 300 299 297 296 297 289 287 293 296 295 295 294 289 283 270 276 266 266 288 270 277 274 273 279 276 276 277 274 276 277 283 285 285 283 284 284 283 284 280 284 277 277 278 278 285 283 283 285 286 289 289 285 283 283 286 287 285 282 281 276 272 275 268 272 269 270 269 273 275 278 273 275 280 283 284 285 287 289 290 289 289 290 291 291 292 293 292
300 300 300 298 297 294 294 295 296 295 295 294 290 285 275 269 261 271 272 273 269 274 273 280 274 274 274 272 272 276 281 276 283 282 284 285 283 284 287 285 285 282 274 280 279 279 280 285 284 284 287 287 287 280 280 280 283 282 280 278 276 271 270 266 271 270 272 274 274 275 280 274 277 282 286 285 287 288 289 290 290 290 290 291 292 292 292 292
299 299 296 297 296 296 297 297 296 296 293 291 285 278 273 264 265 279 269 273 271 279 278 275 275 274 272 270 272 280 275 281 280 280 282 281 282 279 283 286 286 283 281 280 276 278 274 275 280 282 279 287 285 284 284 281 283 281 284 282 278 277 273 268 272 268 269 272 273 275 273 268 276 278 285 287 289 289 291 291 292 291 291 291 291 292 292 292
299 297 297 296 295 296 298 297 297 296 291 287 279 273 264 264 269 267 269 271 274 277 274 276 272 272 270 271 277 279 276 272 278 277 278 278 277 279 280 281 286 285 283 276 279 279 276 277 283 287 286 288 284 287 288 284 282 283 284 284 280 277 284 276 277 276 274 271 268 271 271 275 280 288 286 287 287 288 290 290 290 290 291 291 291 291 291 292
297 295 296 292 292 294 298 297 297 293 289 281 274 269 267 269 266 272 271 279 277 272 273 275 272 269 270 271 278 276 278 272 274 275 274 277 278 275 280 282 281 285 281 276 281 275 279 275 284 285 288 286 286 287 287 288 275 281 282 277 280 286 284 280 281 278 279 277 273 278 276 277 282 286 288 288 287 286 286 288 287 287 289 291 291 291 291 291
292 294 289 292 292 296 297 297 296 291 287 280 272 267 271 270 277 276 279 276 276 276 273 267 268 266 264 265 268 271 272 275 272 272 269 276 273 280 279 279 280 277 277 276 274 282 273 274 282 282 282 286 289 288 288 288 287 283 276 280 285 286 283 279 273 277 275 273 275 279 273 275 276 274 286 286 286 287 288 287 287 288 288 289 291 292 292 292
291 291 291 290 292 296 296 296 293 289 284 277 271 274 274 270 280 278 281 279 277 276 271 269 270 270 267 268 269 272 271 268 270 270 268 272 270 281 277 277 280 278 279 280 274 276 277 269 276 282 284 287 290 288 285 287 289 284 281 287 280 273 274 278 276 270 271 271 273 278 277 277 278 279 284 284 284 286 288 289 289 289 288 289 290 291 292 292
291 289 283 290 295 296 295 295 290 285 278 273 271 271 274 274 281 279 280 280 279 275 271 272 269 271 270 268 270 271 271 267 270 268 265 269 268 278 275 279 276 280 280 279 274 275 277 269 276 282 282 284 286 284 276 280 286 285 286 282 285 282 278 276 276 278 279 272 274 273 278 274 281 282 285 286 288 289 288 286 288 290 291 291 290 291 292 293
287 284 282 292 294 294 294 292 286 282 276 270 272 272 277 271 277 280 280 279 275 274 272 270 273 269 271 270 271 268 270 269 269 269 268 269 269 276 274 280 276 277 279 279 276 279 272 278 267 275 281 280 277 282 278 281 279 280 280 279 281 281 284 281 281 279 275 274 275 274 274 277 283 287 287 288 289 290 290 291 289 290 291 291 292 293 293 293
289 282 282 292 293 293 292 286 279 275 274 276 277 273 274 272 276 278 280 281 278 281 275 273 273 270 272 270 270 273 270 269 269 268 267 268 269 267 278 278 278 276 280 277 276 277 272 273 266 272 273 272 276 285 284 284 284 281 280 278 280 278 277 273 271 282 279 276 273 275 273 281 286 292 291 290 291 291 291 289 289 289 290 291 291 291 293 293
283 277 281 291 293 292 285 276 277 278 275 273 272 276 273 281 277 276 278 279 278 275 280 274 275 273 272 272 272 272 272 270 270 269 267 268 270 270 273 279 278 280 275 272 273 279 276 275 272 268 270 273 277 279 283 285 285 284 283 280 282 281 281 276 271 275 278 278 280 278 276 278 286 282 286 286 286 286 287 292 292 289 289 289 289 290 291 293
282 280 290 292 292 289 281 275 278 277 274 276 280 278 279 277 275 277 276 278 274 278 275 274 272 271 273 272 272 272 273 269 270 268 270 270 272 274 277 278 278 277 278 273 277 277 280 270 268 270 274 276 277 279 281 281 282 281 283 284 282 279 280 278 278 280 277 277 276 275 274 277 286 283 286 286 285 286 286 286 283 284 287 288 287 288 289 289
283 283 285 291 292 288 279 270 271 274 275 276 277 276 279 276 275 274 275 276 274 273 273 272 273 276 271 274 272 270 273 266 272 271 269 272 271 278 277 277 278 273 273 273 272 277 269 269 270 264 265 267 271 278 279 279 278 275 275 275 276 278 282 282 282 282 276 277 278 275 271 277 286 290 284 286 285 285 285 286 286 284 287 287 287 287 287 288
283 285 285 287 289 286 276 278 275 274 275 274 274 273 274 275 277 276 275 274 277 275 272 272 274 275 273 274 271 272 273 271 268 273 272 272 272 277 276 277 279 275 277 280 279 279 270 270 267 261 259 259 260 265 268 270 269 273 274 273 275 275 272 273 274 276 273 277 279 276 275 282 287 289 289 285 285 285 285 285 286 286 285 288 289 287 287 288
281 274 282 280 284 282 281 283 280 276 274 273 272 274 274 272 276 278 277 275 277 277 276 275 275 275 273 272 270 268 270 273 269 267 269 269 272 274 274 277 277 276 278 280 279 276 269 272 270 268 265 263 266 269 273 274 271 267 270 274 274 275 275 275 273 271 273 277 277 278 280 281 283 285 283 284 286 285 285 286 287 287 287 287 288 289 289 288
283 277 278 275 280 279 276 280 278 278 274 277 271 274 272 272 273 274 279 271 277 275 275 274 274 271 271 271 269 269 270 269 272 270 269 269 272 273 275 275 275 277 279 278 279 273 270 268 269 270 269 269 271 270 272 273 269 271 270 270 272 272 274 272 270 267 274 271 272 280 282 280 281 284 286 285 285 286 286 286 286 287 288 289 288 288 290 288
275 280 282 283 276 274 274 275 278 276 277 277 273 276 272 272 272 269 275 276 275 277 271 272 273 273 272 271 270 266 268 267 269 267 271 271 270 272 272 275 274 277 278 274 278 272 270 267 270 270 268 270 271 271 272 272 271 271 271 271 270 273 273 270 270 273 273 269 268 275 279 280 282 285 287 288 288 286 285 285 286 287 287 287 287 286 286 286
284 282 282 284 277 279 279 278 278 277 275 276 275 275 271 271 271 273 272 273 274 272 275 267 270 272 273 273 271 268 268 263 264 269 268 268 269 269 267 269 273 275 274 272 272 272 269 266 269 269 267 269 270 271 272 271 271 272 271 272 272 272 271 272 272 274 273 271 273 274 273 273 282 286 288 289 290 290 291 290 286 286 287 287 288 288 288 288
280 279 277 282 280 278 279 279 278 276 274 277 272 274 273 272 270 273 274 272 270 272 275 270 271 272 273 273 272 269 270 270 269 266 270 269 267 270 268 269 269 273 273 270 270 271 268 265 272 270 267 267 269 270 270 270 269 267 269 271 272 272 272 272 273 274 274 273 274 274 275 277 283 287 288 290 291 292 292 291 291 290 289 288 288 288 288 289
286 287 285 278 275 278 278 277 276 275 273 275 273 274 274 274 272 275 273 276 273 271 273 271 273 272 273 272 272 271 273 273 272 271 272 272 267 271 268 267 272 267 269 269 269 268 270 266 269 266 263 263 267 267 268 269 269 268 269 270 271 271 270 272 271 274 272 271 273 273 272 273 282 288 289 289 288 288 289 290 291 291 292 291 289 288 288 289
288 287 285 281 273 280 275 278 277 275 271 275 275 275 274 273 275 276 272 276 276 276 275 274 274 272 271 271 270 272 275 275 275 275 275 275 275 274 274 273 273 271 269 269 270 267 265 264 263 262 261 261 266 268 267 267 266 264 266 269 271 272 273 274 274 275 274 275 271 270 271 280 282 281 280 282 287 288 288 289 290 291 292 292 291 291 291 291
Wind_Speed
22 22 22 22 22 23 23 24 24 24 24 25 23 19 18 18 14 13 13 14 15 15 16 16 17 18 18 18 18 19 19 13 14 12 13 14 10 8 4 3 1 12 8 3 3 3 3 3 5 3 4 3 2 3 2 3 0 1 4 5 9 7 11 6 10 7 4 5 4 6 4 3 4 2 2 2 1 3 5 3 3 3 4 3 3 8 6 7
23 22 21 21 22 22 23 24 24 24 24 23 24 24 22 19 19 16 13 14 14 15 15 15 17 17 17 18 19 19 16 13 15 14 18 18 17 14 3 4 2 7 10 5 7 5 4 5 5 4 4 3 2 4 7 2 5 6 3 7 13 9 9 7 8 9 7 9 6 4 3 1 3 2 4 2 3 6 6 7 5 5 5 4 4 7 7 5
24 24 23 22 22 21 23 25 25 25 24 23 23 22 23 23 21 18 17 14 14 13 14 15 16 17 17 18 19 18 14 13 11 13 5 13 3 4 5 5 7 8 10 7 5 3 4 4 6 6 3 3 4 4 6 3 7 8 5 11 11 6 7 10 10 8 7 4 4 6 6 4 1 1 3 3 3 4 9 6 6 9 8 7 6 6 6 6
25 25 25 25 24 23 22 24 25 25 25 24 24 23 22 23 23 22 20 18 16 13 14 14 15 15 17 17 17 14 10 11 6 0 8 11 12 8 8 8 8 9 9 8 4 5 4 5 3 7 3 5 4 4 6 4 6 3 9 11 6 8 11 12 12 5 4 4 1 3 1 4 3 3 2 3 5 7 6 6 7 8 10 8 8 8 7 7
24 25 25 25 25 25 24 23 23 24 25 25 24 23 22 22 22 23 23 22 19 16 13 13 14 16 16 17 18 9 10 5 0 5 8 14 12 3 7 9 8 8 8 6 3 3 3 4 3 4 3 4 5 7 8 6 5 1 14 12 7 7 8 2 2 4 1 2 1 2 4 3 1 3 5 6 9 6 4 3 2 4 8 9 9 10 9 9
23 24 24 24 24 24 25 25 25 24 25 25 25 25 24 23 22 22 21 22 22 19 17 14 13 14 16 16 13 8 5 3 2 4 9 11 11 4 5 5 3 5 7 8 6 5 3 3 3 4 4 4 8 9 7 10 8 10 9 8 12 11 11 2 1 1 1 0 1 1 2 3 1 3 4 6 11 7 7 2 2 1 4 3 4 9 10 10
24 23 23 25 24 26 25 25 25 25 25 26 25 26 26 25 23 22 21 21 21 22 18 17 13 14 12 16 11 8 6 9 2 4 8 9 12 1 5 2 2 4 6 8 7 5 6 5 5 5 4 5 8 9 7 7 9 11 10 6 10 9 14 11 3 4 2 1 2 1 3 2 2 8 3 10 8 11 8 6 6 1 0 1 4 2 12 12
23 24 24 24 25 25 26 26 27 26 26 26 26 26 26 26 25 24 22 21 20 20 20 17 15 10 9 7 9 4 6 8 2 2 7 7 7 3 2 4 4 5 8 10 9 8 7 8 9 5 6 8 3 10 7 7 8 13 12 9 9 9 9 5 2 3 2 3 2 2 2 6 6 7 3 11 10 9 7 7 7 7 5 2 3 5 3 10
23 23 24 24 25 25 26 26 27 27 27 26 27 26 27 26 25 25 23 22 21 19 19 18 17 8 5 5 8 10 7 1 1 2 2 4 4 5 4 5 3 6 8 9 9 7 6 6 6 8 5 8 7 9 8 7 10 11 10 6 8 10 5 5 4 2 4 2 2 4 8 8 8 6 12 11 17 9 9 7 8 8 7 7 8 7 6 5
23 23 24 24 25 26 26 27 27 27 27 27 28 28 26 26 26 24 24 23 22 20 19 18 16 2 4 5 7 7 0 5 2 1 2 1 2 4 6 8 5 7 7 8 7 9 8 4 10 6 8 6 3 5 4 9 2 0 6 11 12 9 6 2 4 3 3 4 3 7 9 9 5 7 8 6 16 12 12 12 12 9 10 12 7 7 7 8
23 23 23 23 25 25 26 28 28 27 28 29 30 28 27 27 26 25 24 23 23 21 19 17 13 5 5 4 4 7 3 4 2 2 2 1 1 4 6 5 4 5 8 6 7 7 6 7 2 1 2 3 1 5 6 2 3 2 3 4 5 5 6 4 4 5 3 4 8 6 10 9 8 7 14 9 1 6 8 11 11 10 14 12 10 9 9 10
23 23 23 25 25 26 27 28 28 29 28 30 29 29 29 27 26 26 25 24 22 21 18 16 10 4 6 8 9 8 5 2 3 1 0 0 1 2 4 5 6 5 4 6 5 3 4 3 2 3 4 2 6 3 6 3 2 1 1 4 6 6 9 10 10 6 5 5 6 5 7 13 10 11 14 16 7 4 5 7 8 11 11 11 11 11 10 12
22 23 23 24 25 27 27 28 29 29 29 29 31 31 30 29 28 26 23 22 19 19 18 17 5 4 5 10 10 13 7 1 2 3 4 3 3 4 2 2 4 5 5 5 2 2 2 1 1 1 3 1 2 4 1 3 1 0 1 4 6 7 12 11 9 9 9 5 7 6 9 14 10 18 17 17 13 14 9 12 10 7 8 9 9 9 10 9
23 23 24 24 25 27 28 28 28 30 29 30 31 32 31 30 28 25 21 19 18 18 18 17 3 5 7 7 1 4 8 6 4 5 7 6 5 3 3 4 3 3 3 4 1 2 1 0 0 2 1 1 2 1 1 2 1 2 6 4 6 5 9 8 12 11 11 6 10 6 11 15 7 7 17 14 11 12 15 15 13 11 8 8 9 8 9 9
23 24 24 25 26 26 27 27 28 28 29 30 31 32 32 30 29 23 17 16 14 14 16 9 3 2 5 7 6 6 4 2 6 10 7 8 6 4 6 5 5 3 1 2 2 1 0 1 1 2 2 3 1 4 3 3 3 4 2 5 4 8 5 4 3 14 13 2 11 6 12 15 13 11 4 5 9 12 13 12 11 10 8 8 8 9 10 10
24 24 25 26 26 27 28 28 27 28 29 30 30 31 30 29 24 17 13 12 12 12 2 3 2 4 7 10 1 4 3 5 7 6 6 7 5 4 1 4 2 2 2 0 2 1 1 2 2 2 3 3 3 4 3 3 6 6 9 5 4 8 8 1 3 7 11 5 5 14 9 2 4 2 4 2 7 7 8 8 8 7 7 8 8 8 9 9
23 24 25 26 26 27 27 28 27 29 29 29 31 26 30 26 15 9 14 13 5 4 3 2 4 3 5 2 0 4 6 5 4 2 2 4 5 4 2 2 3 3 2 0 2 1 1 2 2 1 2 3 4 5 5 9 10 8 6 9 5 5 6 7 2 4 3 11 9 14 11 12 2 3 1 1 3 5 5 7 7 7 5 5 6 8 9 9
23 24 25 26 26 27 27 27 27 28 28 28 26 23 22 20 8 2 6 8 3 2 3 1 2 4 9 8 7 3 3 5 1 1 3 1 5 3 3 3 2 3 3 2 2 3 3 2 3 3 4 6 7 10 12 16 12 6 5 7 8 9 12 7 6 7 5 7 7 9 14 17 10 9 4 4 4 5 8 8 7 7 6 7 7 7 8 9
24 24 25 26 26 27 27 26 27 27 25 27 23 21 18 13 5 4 6 9 5 1 4 4 5 8 3 4 7 4 3 3 3 2 3 4 3 3 3 2 1 4 3 4 2 6 3 2 3 4 11 12 14 14 15 7 3 8 9 7 8 9 10 14 5 5 16 10 9 9 12 15 14 14 12 11 5 7 8 7 6 7 7 7 7 8 9 10
24 23 24 26 26 27 27 27 27 24 25 17 12 10 6 13 9 2 10 12 3 7 11 14 8 12 18 15 8 2 2 1 3 5 4 4 4 5 4 3 3 4 5 5 5 8 5 7 10 14 17 11 10 13 13 11 9 2 2 4 4 7 7 2 2 4 8 4 11 13 14 14 12 9 9 14 12 13 12 10 9 8 9 10 10 10 10 10
23 24 24 26 25 27 27 27 27 21 24 12 12 11 11 13 11 11 15 12 13 11 11 13 13 12 13 11 11 6 6 4 6 3 8 5 4 6 5 5 5 6 7 6 4 5 8 8 16 18 9 10 10 12 12 11 11 10 6 6 7 4 4 1 2 4 5 3 5 9 13 17 15 11 11 11 11 17 14 10 11 12 11 12 14 14 13 12
23 24 23 25 26 25 27 28 25 25 18 9 8 10 8 8 4 6 3 11 10 10 14 17 14 16 13 15 15 11 9 12 8 5 4 8 5 8 6 8 8 8 6 6 5 5 8 15 18 9 6 7 11 11 13 14 13 10 9 10 8 10 3 2 3 3 3 2 8 4 10 14 12 8 7 10 15 16 10 12 14 13 14 13 13 14 14 11
21 24 25 25 25 26 26 28 26 23 8 9 8 10 9 8 2 3 5 10 18 7 13 15 13 16 16 13 11 6 13 14 15 11 8 7 5 10 5 8 8 7 7 9 10 7 9 14 16 4 8 11 9 11 11 13 12 11 10 10 14 9 6 6 2 2 3 4 2 3 7 14 11 9 14 14 15 17 11 13 17 15 17 16 17 16 15 15
21 21 22 24 25 25 26 27 26 9 10 11 6 10 7 6 6 6 8 7 13 15 12 14 13 8 11 9 3 14 16 11 10 12 9 9 10 6 8 9 11 9 10 12 14 12 15 8 5 15 12 14 15 12 11 9 11 11 12 11 12 7 5 8 2 3 1 4 2 4 7 14 12 10 9 12 17 17 16 17 18 17 17 18 16 15 16 18
21 22 22 24 25 26 26 27 5 10 10 10 5 7 9 7 7 6 8 7 7 10 6 9 5 2 6 5 4 7 8 11 8 4 5 12 10 4 9 5 4 8 10 13 13 14 17 14 4 5 13 12 11 11 13 10 10 8 12 14 12 4 4 4 4 6 1 4 3 3 5 10 13 10 14 12 8 16 17 12 18 19 16 16 17 19 17 16
20 21 21 23 23 25 25 9 7 10 12 6 8 9 8 7 6 5 5 4 7 4 0 4 3 4 3 7 3 7 4 9 4 8 5 10 10 8 3 7 5 11 14 12 11 8 12 8 9 10 9 13 13 11 8 10 9 9 7 13 13 8 6 6 7 3 4 7 3 6 8 13 11 4 6 4 6 14 7 10 18 14 14 14 16 15 15 16
19 20 21 22 22 24 12 7 9 10 8 7 9 10 8 8 5 6 3 3 5 2 2 2 4 6 4 10 6 3 3 1 6 3 4 7 11 5 11 6 7 6 5 2 4 10 6 11 9 11 11 10 10 12 9 10 8 11 2 5 11 14 13 8 8 8 4 1 2 2 3 6 16 11 5 5 6 8 8 11 14 11 12 13 13 13 14 16
19 19 20 21 21 20 9 8 9 9 8 10 12 9 10 7 6 4 3 4 2 2 3 3 4 3 6 12 7 4 3 7 4 3 5 9 6 6 10 12 12 8 6 6 15 5 13 9 11 11 10 10 12 11 9 11 9 4 1 4 9 12 11 6 6 4 3 2 8 6 2 3 9 6 5 9 7 7 13 14 13 10 10 11 12 13 15 16
17 18 18 18 20 23 9 7 9 9 8 10 11 10 7 8 5 2 1 2 1 0 1 3 3 2 11 12 9 8 7 5 3 5 6 5 7 2 8 11 10 12 8 11 13 9 1 3 11 16 11 12 10 11 10 11 11 3 2 5 3 3 4 6 4 4 1 3 9 10 9 7 17 8 2 1 6 11 14 16 11 11 11 11 13 15 15 13
16 17 17 17 15 8 7 8 7 8 11 11 11 10 12 7 3 2 1 4 3 3 6 2 3 8 9 10 12 8 13 3 2 4 3 4 2 5 4 1 3 3 10 8 13 14 2 2 1 2 8 9 9 7 6 10 9 5 5 6 4 2 2 2 4 4 2 8 13 13 10 11 9 14 9 9 10 12 8 5 8 9 10 14 15 15 13 12
16 17 15 15 9 7 8 8 7 9 11 10 10 13 8 3 1 1 3 2 3 0 3 4 6 9 11 11 11 14 10 3 2 1 4 2 3 3 4 7 3 7 5 8 11 12 3 2 1 2 2 3 2 2 2 2 7 11 2 4 5 4 1 1 2 4 5 8 12 16 8 9 10 16 5 12 8 8 10 11 10 11 15 15 14 12 10 8
15 17 17 9 8 6 8 9 9 7 8 10 12 9 4 2 3 2 4 2 5 2 3 4 5 7 11 7 7 6 8 6 2 2 3 2 5 5 5 8 4 6 9 10 13 10 15 11 4 5 4 3 2 3 4 1 9 8 6 7 10 5 4 4 4 8 9 11 4 3 15 3 17 21 10 3 4 6 6 6 7 6 8 11 10 9 5 4
14 13 15 8 8 5 7 8 6 6 7 10 8 4 2 1 4 2 4 2 1 4 1 3 5 11 8 14 8 5 3 6 4 2 4 7 7 8 9 10 9 7 6 4 12 11 10 9 11 10 6 6 4 10 7 5 8 9 11 10 10 8 7 6 7 3 5 7 7 8 16 9 3 15 28 22 23 16 11 10 6 2 5 6 6 5 4 2
13 13 8 7 6 6 7 5 3 5 8 8 5 3 2 1 3 4 2 1 4 6 7 6 11 11 10 5 7 3 6 1 7 3 4 5 7 8 7 10 11 11 7 7 7 3 8 8 12 12 9 11 16 13 9 6 9 12 5 10 10 8 5 6 6 10 9 9 3 3 6 6 10 12 2 11 17 21 23 19 15 16 9 6 6 5 5 5
13 10 9 7 5 6 1 2 2 4 6 6 3 2 1 4 3 2 3 2 3 4 6 8 7 6 7 4 2 3 2 3 3 8 5 4 4 5 6 6 12 11 8 12 4 6 16 13 3 23 12 17 17 15 11 5 6 7 7 6 10 14 5 11 7 9 8 5 0 4 6 6 10 13 3 3 2 6 14 17 15 13 10 6 6 7 7 6
8 6 4 5 6 4 1 1 2 5 5 4 2 3 6 2 3 3 1 5 3 5 8 9 6 3 4 4 0 5 6 3 6 4 2 1 5 5 4 3 5 6 6 10 4 6 5 12 6 14 17 13 18 16 15 11 12 7 8 15 11 4 11 10 10 4 2 6 11 5 2 7 8 17 20 15 7 2 4 7 6 6 6 7 7 7 8 8
7 6 6 6 6 4 1 1 1 4 4 3 3 6 2 3 2 4 5 8 7 7 6 8 3 1 2 2 2 6 4 5 3 5 4 6 8 3 2 4 6 12 9 5 5 2 8 8 4 3 10 8 11 17 18 19 8 5 14 12 7 10 3 3 8 4 8 12 8 12 14 8 8 12 4 14 15 16 14 10 7 8 7 7 10 10 10 10
6 6 9 9 10 4 4 2 3 4 3 3 7 11 1 4 3 8 3 5 5 5 5 2 4 4 3 2 4 4 4 4 4 5 4 3 5 5 3 2 7 8 7 6 1 5 10 8 7 9 11 9 5 5 9 11 12 12 6 7 12 7 15 8 2 12 10 12 8 11 15 14 16 16 9 6 6 7 13 15 15 11 8 10 11 11 9 6
6 5 6 8 6 8 5 4 4 3 2 5 7 8 3 4 3 3 4 4 4 7 7 7 3 2 4 6 5 4 4 5 5 5 4 3 4 3 8 2 3 4 3 6 3 4 4 3 4 5 3 3 6 6 10 7 8 2 1 5 7 5 9 11 11 3 6 12 7 13 10 11 8 13 17 22 20 8 4 5 13 14 14 11 9 9 7 7
4 4 5 8 10 8 7 5 5 3 6 9 7 8 1 3 4 5 4 4 5 2 3 4 6 7 6 6 5 6 3 5 5 7 5 4 8 12 12 4 1 3 2 2 2 3 3 4 7 9 9 10 6 7 9 10 11 8 7 7 5 5 0 2 2 13 10 8 10 9 12 9 9 10 17 21 18 11 10 11 6 11 12 11 9 9 7 7
4 4 3 9 9 8 6 4 4 7 7 6 7 7 5 4 2 6 6 7 6 5 7 7 6 8 6 8 8 5 5 4 5 5 3 5 4 8 2 2 6 8 1 1 1 3 2 1 5 10 8 6 10 4 7 14 15 12 12 13 12 7 10 9 9 3 8 8 9 8 16 5 6 9 14 14 12 10 9 7 6 7 10 7 5 5 7 7
4 8 4 12 11 10 9 6 6 5 4 9 10 6 5 8 8 8 6 6 8 6 6 5 8 5 7 11 9 8 7 7 6 6 4 7 5 6 6 13 9 3 6 5 3 3 2 5 4 6 9 10 13 18 14 11 9 7 8 14 15 13 9 11 13 9 3 10 5 10 9 10 2 0 2 3 3 3 4 11 12 4 2 5 6 5 4 3
6 9 7 16 12 14 8 8 9 9 8 8 7 8 8 9 6 5 7 7 6 7 6 6 5 5 8 6 6 8 8 7 5 7 6 6 9 8 9 14 15 7 5 4 4 3 4 2 4 8 9 8 12 16 12 1 4 6 7 6 6 12 12 12 9 7 11 10 12 10 14 8 4 3 1 1 2 3 4 6 3 4 4 4 5 5 4 4
4 7 3 7 15 12 9 9 7 9 10 6 10 11 11 7 5 6 10 10 7 5 8 5 4 11 7 6 5 7 5 6 6 11 9 8 10 7 9 9 9 6 2 2 3 5 6 3 2 7 9 10 7 4 4 2 4 4 6 8 13 15 9 11 7 5 11 9 9 11 18 9 10 10 4 0 2 4 7 5 3 5 4 4 5 4 4 4
4 4 7 6 9 10 11 8 11 8 12 12 11 13 12 9 10 14 11 11 10 8 3 5 10 5 6 5 7 7 7 10 6 5 9 8 11 9 14 16 6 3 3 4 6 3 4 5 4 4 6 8 6 4 2 4 8 8 4 12 11 6 12 12 9 9 13 9 13 10 7 5 6 9 11 2 6 6 4 4 5 4 4 4 4 4 3 1
5 8 3 4 7 9 9 7 11 10 11 12 15 13 14 13 8 13 14 12 11 10 10 6 5 8 11 9 8 8 11 9 8 4 4 5 7 4 6 4 4 3 9 16 16 4 2 4 5 7 9 11 11 11 13 8 9 7 18 14 13 9 8 3 5 8 11 7 13 14 8 2 10 13 5 3 1 6 4 2 5 4 5 4 3 2 1 0
1 7 3 3 2 11 9 10 10 12 15 13 9 6 15 18 11 8 16 6 13 14 9 9 8 6 8 11 11 10 9 8 10 11 11 11 11 10 11 12 11 13 20 14 11 3 2 8 10 11 14 14 13 16 18 15 15 14 12 19 17 16 11 6 5 9 11 14 15 8 12 11 14 12 13 8 2 6 5 5 4 4 4 4 4 2 2 1
7 4 8 8 8 8 7 9 13 16 16 13 15 7 14 15 12 9 8 15 5 12 7 4 12 16 16 12 8 6 6 10 9 12 14 12 9 8 10 9 9 9 12 5 3 3 5 9 8 6 11 13 16 19 14 13 13 16 15 16 18 16 14 12 10 10 8 5 9 15 14 15 16 16 15 14 9 2 3 4 5 5 4 4 4 4 4 4
9 3 5 6 8 13 18 14 17 17 20 19 11 14 12 15 18 15 10 6 10 8 14 10 15 20 20 17 10 9 8 6 10 12 10 8 9 6 5 5 7 7 6 6 3 3 2 6 9 11 14 12 11 12 13 15 13 15 16 16 17 19 17 15 15 12 10 12 11 17 19 20 17 18 19 20 15 10 11 1 2 2 3 6 6 6 6 6
7 5 7 6 13 14 13 11 10 15 15 20 14 16 14 18 19 13 9 10 10 16 14 16 16 17 18 16 14 13 16 18 15 11 7 8 5 5 5 5 4 1 2 0 0 1 1 5 8 6 6 6 8 10 14 16 15 15 17 17 18 16 18 17 14 15 12 11 12 15 17 16 13 17 16 13 14 14 13 16 12 5 4 3 3 3 4 5
7 8 8 5 7 10 13 13 12 13 12 15 12 11 13 20 21 18 19 19 24 15 16 24 23 19 15 14 16 18 21 20 19 17 12 9 7 5 4 2 4 2 1 2 1 2 2 4 4 5 9 11 8 9 15 16 15 15 15 16 13 13 13 11 11 9 9 11 15 17 18 13 13 14 19 18 13 12 15 15 12 9 9 10 7 4 4 2
6 4 4 6 10 10 12 12 14 11 15 10 13 16 12 21 21 20 16 13 19 20 17 21 22 16 12 16 20 24 24 22 19 15 10 7 7 7 7 7 4 6 4 5 4 4 3 3 5 4 9 12 10 11 9 11 13 15 13 10 13 16 15 15 14 14 15 13 15 13 11 11 10 16 20 23 20 18 17 15 13 12 11 10 13 15 13 9
Wind_Direction
15 14 10 5 2 0 359 359 358 358 357 356 358 352 337 326 323 326 327 323 324 330 331 332 330 328 324 323 319 319 322 315 307 296 281 256 266 260 359 27 104 204 169 198 231 182 174 193 205 188 205 163 209 228 172 177 159 129 226 220 239 222 228 215 235 230 264 261 140 224 155 200 238 125 143 53 305 260 279 243 243 280 232 269 90 95 83 97
10 9 8 8 3 359 357 356 354 353 353 352 352 351 353 347 328 318 320 318 319 321 330 329 331 331 327 322 323 323 323 311 301 290 265 270 259 254 171 280 229 207 169 200 198 203 181 189 194 182 181 191 174 222 128 218 167 199 221 213 233 212 234 225 239 245 254 253 254 155 154 239 247 152 142 198 197 204 237 245 240 231 245 219 116 116 124 138
8 5 4 4 3 1 0 358 354 350 349 349 348 347 346 347 350 339 319 314 312 311 323 325 329 331 329 325 322 326 318 303 297 282 322 16 308 216 224 224 234 203 190 192 210 201 226 186 180 174 196 198 180 207 182 215 171 218 215 226 230 227 249 239 238 246 254 340 321 123 187 201 248 316 104 210 247 213 206 223 222 227 232 216 167 157 155 156
6 5 6 7 3 2 2 356 353 350 348 347 345 344 344 343 342 344 342 327 308 304 313 322 325 330 328 327 327 323 299 296 272 1 20 0 341 252 213 215 225 204 198 228 223 220 230 275 187 186 182 225 183 199 182 201 174 178 222 230 221 207 235 244 260 276 18 53 303 301 353 168 225 241 184 206 233 234 248 225 215 213 222 216 196 170 166 174
5 5 7 4 359 358 356 354 350 348 347 345 344 342 341 341 340 339 339 338 334 305 301 312 320 325 327 330 323 318 308 284 233 23 8 352 344 254 191 193 205 188 210 218 221 252 247 233 198 197 236 211 223 188 211 204 209 227 225 227 234 250 243 258 110 79 71 44 334 300 292 236 190 256 219 230 233 223 203 222 284 256 216 200 209 183 171 178
6 4 4 1 356 353 351 350 351 349 345 343 342 339 338 336 336 334 333 334 331 331 304 303 312 320 325 325 312 293 290 277 65 27 338 350 349 147 161 139 175 228 211 226 207 189 200 235 200 190 206 226 216 217 194 213 172 241 239 234 234 244 264 165 124 81 74 212 250 273 295 359 207 242 241 236 236 240 240 268 253 74 24 348 233 178 174 180
4 5 5 360 355 354 353 350 347 346 343 341 339 337 334 333 331 329 328 327 326 325 324 300 305 314 328 319 294 260 251 278 7 342 4 347 349 57 87 160 128 257 242 214 209 192 189 193 205 198 209 227 240 236 215 207 187 225 240 234 243 242 251 265 259 121 84 274 232 266 55 229 249 257 207 239 244 247 252 265 275 286 58 347 348 252 180 189
2 1 359 356 355 354 351 348 346 345 342 338 336 335 332 330 328 325 324 321 319 317 320 310 295 316 331 325 329 312 263 260 40 87 10 357 338 338 298 226 210 230 228 219 199 203 171 197 192 191 226 209 190 221 210 225 203 213 237 230 247 240 249 268 100 207 225 251 267 254 243 238 221 237 298 255 253 246 248 244 256 264 238 204 240 279 234 190
0 358 357 356 354 352 350 347 345 342 339 336 334 332 330 327 323 322 320 320 316 312 313 317 295 311 333 291 307 310 282 99 245 58 61 4 345 313 332 248 215 239 230 225 218 206 183 207 203 199 214 218 255 259 211 195 232 222 237 219 235 251 241 217 207 198 223 251 224 254 241 245 244 277 257 255 254 246 250 249 243 236 242 230 219 216 243 227
359 357 356 354 352 350 348 346 343 341 338 336 333 331 327 324 321 319 317 315 313 311 306 311 299 261 298 299 299 288 303 198 175 99 51 80 348 306 268 272 223 230 235 225 221 212 203 190 205 209 255 290 273 235 266 214 229 312 232 230 241 250 259 238 211 215 212 234 211 233 254 251 232 170 263 210 247 238 236 242 244 235 237 236 226 220 224 227
357 355 354 355 351 350 347 346 343 340 338 336 334 329 325 323 319 315 313 309 307 304 300 295 301 230 261 255 266 259 132 201 218 104 54 266 192 251 253 253 242 247 248 241 236 232 218 227 178 55 26 236 257 237 224 230 12 37 23 331 285 269 274 281 271 213 172 248 214 232 258 260 243 218 240 245 213 204 202 227 233 228 234 237 232 225 222 226
355 354 352 352 351 348 347 345 343 341 338 335 332 327 323 319 314 309 306 303 300 299 294 291 279 230 257 256 234 229 123 201 181 164 144 304 194 252 284 302 307 264 241 246 233 259 280 33 21 160 194 149 235 313 247 192 196 55 13 278 258 260 259 235 235 228 180 239 179 197 274 262 231 233 234 231 229 235 211 220 220 218 225 226 225 226 226 225
354 352 351 351 348 347 346 344 343 341 338 335 330 326 322 317 313 308 302 299 292 290 290 291 289 211 229 253 234 246 244 227 200 229 251 232 245 221 212 280 270 288 300 296 287 284 43 123 340 317 290 321 259 215 351 359 186 159 213 230 285 279 261 232 211 213 202 211 149 135 267 252 233 224 233 230 213 230 241 246 236 222 214 216 219 221 224 222
352 351 350 349 347 346 344 343 342 340 339 335 329 325 322 317 314 309 302 292 290 285 282 286 224 229 228 242 341 309 286 277 263 241 236 237 245 225 213 202 230 259 285 274 333 330 0 1 100 296 322 287 211 72 211 144 197 187 220 184 227 240 259 210 193 185 201 163 164 178 249 265 256 228 228 231 198 204 222 233 236 235 224 208 210 217 224 225
350 350 349 348 346 345 344 343 341 340 338 334 330 326 321 318 314 309 302 294 284 275 282 292 131 189 234 265 228 224 45 330 262 250 235 226 213 238 215 187 207 230 242 327 331 6 33 269 165 182 248 191 352 343 271 212 195 238 207 226 226 218 251 355 293 171 186 184 170 172 250 256 270 258 282 199 182 194 213 224 233 231 222 202 205 216 225 229
349 349 348 347 346 344 344 342 341 340 337 334 332 325 321 321 323 334 322 305 289 279 342 118 165 211 290 293 241 103 210 199 237 227 210 215 208 236 163 170 148 163 188 281 325 278 253 198 207 182 204 67 208 220 275 283 237 211 220 237 189 199 236 235 279 192 177 122 200 190 232 143 250 323 85 85 161 183 209 233 239 235 226 207 200 207 220 228
350 348 348 348 346 344 344 343 341 339 336 333 330 328 324 321 334 18 31 15 354 64 133 219 148 180 258 137 129 263 231 202 89 135 165 210 218 212 146 149 198 177 165 97 229 225 209 162 209 340 266 213 185 177 209 245 242 219 201 236 236 210 201 229 21 315 142 150 199 228 243 240 230 144 93 119 182 175 216 234 239 245 239 225 211 207 212 221
350 348 347 346 346 344 343 344 340 339 335 334 331 334 325 328 330 2 30 10 3 29 86 28 210 249 252 243 254 282 354 107 138 72 173 198 228 202 191 200 177 159 168 167 227 193 199 192 201 228 187 208 191 191 191 222 212 207 190 219 230 252 250 245 152 213 137 195 208 226 237 252 249 267 218 182 205 186 215 225 234 240 240 233 222 220 220 223
348 348 346 346 346 344 343 342 340 338 336 335 334 337 332 327 326 107 37 2 348 219 187 162 195 190 215 44 271 237 126 72 71 176 178 172 220 211 199 276 212 179 183 198 208 175 184 237 188 219 226 197 206 199 213 216 89 201 214 212 209 221 220 236 217 153 167 190 221 217 229 240 245 251 264 270 211 202 221 224 236 241 242 242 231 222 221 222
347 347 346 345 345 344 343 338 340 341 339 337 339 347 349 16 7 328 0 352 324 292 290 291 285 283 304 303 307 50 83 217 210 215 180 191 170 190 191 188 199 222 217 202 169 188 164 195 206 209 220 206 200 214 225 230 268 281 275 276 256 226 239 29 78 202 177 172 221 224 234 251 252 239 237 242 254 246 231 226 227 229 237 242 243 236 229 224
345 346 345 344 344 344 341 337 336 341 339 343 341 17 28 6 360 342 336 285 269 283 278 281 275 274 267 289 291 270 298 247 195 225 172 176 206 157 197 184 192 210 221 225 202 188 197 212 226 222 210 199 205 211 224 245 252 266 286 279 272 262 258 279 144 162 215 199 253 211 239 248 249 246 234 243 244 247 232 227 228 228 226 235 240 243 238 236
344 343 344 342 342 344 341 335 331 332 338 343 356 33 34 19 135 273 329 307 291 254 271 266 270 270 257 247 254 264 279 279 247 204 148 159 196 200 192 183 189 209 192 216 245 188 209 222 234 224 205 211 220 208 207 218 232 242 247 264 273 249 206 17 61 167 198 177 269 284 278 267 258 254 232 225 231 242 231 228 233 229 231 232 235 240 244 241
343 341 341 341 341 342 341 328 328 328 351 348 357 33 25 353 358 187 207 267 277 229 235 238 246 240 252 252 249 228 240 238 250 217 181 165 199 216 193 185 207 214 203 188 212 197 224 238 241 207 209 221 228 223 211 208 216 218 229 233 234 242 221 263 253 223 240 198 252 37 307 281 269 245 244 236 240 247 231 231 233 223 230 230 232 231 234 237
342 342 341 340 339 342 339 327 317 346 345 330 342 27 3 345 337 329 310 298 303 294 224 233 220 245 256 256 198 214 229 243 236 252 161 169 194 176 234 202 213 208 218 203 211 220 223 231 190 199 219 218 218 219 221 207 216 214 218 226 242 234 214 222 221 181 243 308 312 330 304 285 258 245 249 236 230 244 239 232 239 234 228 231 235 236 232 234
339 339 339 337 339 340 338 314 349 348 327 313 30 5 352 343 337 341 327 295 255 265 187 243 196 276 289 257 235 213 220 249 247 270 169 180 190 168 217 223 217 228 223 221 218 231 244 233 305 188 216 221 225 225 214 204 224 224 222 222 231 209 199 205 130 132 200 274 185 181 310 271 269 216 226 234 213 232 239 224 238 234 228 229 232 233 233 235
338 337 338 337 338 340 333 314 6 337 320 354 355 348 333 341 318 336 319 292 292 294 320 44 148 55 316 4 296 245 301 270 231 234 168 204 194 199 197 224 198 235 223 226 232 234 240 237 235 245 216 215 220 224 206 195 225 224 220 206 227 224 192 176 183 147 248 253 243 172 192 279 276 188 237 236 205 235 247 213 237 230 232 224 227 231 232 233
338 337 337 336 337 339 335 356 323 330 333 336 345 333 327 314 339 313 311 222 263 21 41 344 298 54 334 357 332 40 224 320 327 342 226 176 206 186 249 224 215 236 226 210 235 229 229 226 227 240 234 219 217 222 208 198 210 241 251 223 202 210 207 199 176 177 230 73 17 11 196 244 287 255 204 203 202 240 256 244 239 226 226 223 227 225 226 231
338 338 339 333 336 334 310 308 331 326 337 327 321 332 317 313 317 272 226 332 279 305 38 19 32 312 2 340 337 273 327 5 304 42 5 328 242 239 224 232 237 223 205 212 239 218 229 207 203 226 221 213 216 215 205 207 211 233 269 223 197 195 203 182 169 210 208 214 254 204 213 281 251 278 168 179 209 246 245 236 238 231 221 223 228 226 228 227
339 336 337 330 335 316 323 357 302 306 347 326 317 319 314 305 282 349 278 277 21 12 31 131 330 1 350 342 16 4 342 7 321 357 333 314 318 342 225 239 251 267 249 219 240 244 42 228 197 208 209 217 215 218 211 196 215 217 162 53 64 140 168 152 173 171 256 213 239 226 181 222 270 243 99 215 198 222 232 238 240 231 223 220 224 230 230 228
335 333 335 333 330 316 348 303 294 6 328 325 310 315 306 290 256 258 246 267 67 327 9 330 14 338 348 354 335 354 344 336 160 310 351 332 278 287 268 323 13 273 270 263 248 251 256 311 318 310 223 221 225 228 217 210 209 126 94 85 49 48 101 124 149 135 170 229 238 227 195 188 267 263 174 201 220 214 231 263 222 229 231 227 223 226 223 221
329 329 330 333 325 331 311 311 337 350 320 310 319 308 290 266 242 278 254 231 59 8 292 30 354 358 2 15 335 317 313 264 293 284 328 216 293 222 295 276 223 278 266 261 259 258 250 28 307 245 283 356 319 280 351 298 150 131 134 143 98 357 83 49 196 185 179 248 236 229 180 180 218 274 174 213 232 198 195 230 227 218 221 228 232 233 230 208
323 323 321 322 305 304 310 310 329 329 312 313 315 313 311 303 187 198 237 35 281 42 49 300 22 355 334 333 299 284 289 304 198 218 225 219 232 235 214 248 194 228 235 230 252 241 247 227 212 273 20 293 240 154 250 120 166 157 151 147 177 204 138 233 157 210 212 220 248 153 144 188 230 250 232 217 280 265 198 187 198 205 222 234 241 241 198 141
325 317 315 292 305 307 299 296 318 316 309 306 307 300 314 254 267 233 260 46 274 88 356 96 354 338 332 330 306 306 282 275 259 230 247 248 251 244 225 217 237 242 280 200 241 241 255 218 199 224 250 195 226 205 177 202 196 174 175 171 188 194 193 201 194 215 239 258 248 140 168 209 241 264 256 243 247 266 268 268 281 221 206 206 211 182 151 150
320 314 305 299 300 281 265 296 337 314 312 311 289 297 250 237 246 60 210 308 289 8 355 18 339 332 322 296 285 8 302 91 52 331 349 290 255 257 232 224 222 248 244 295 267 231 262 216 211 175 218 165 212 219 205 203 184 199 180 191 200 190 189 196 195 206 210 223 252 210 160 248 155 248 275 227 225 225 246 257 251 250 238 207 184 171 170 186
311 296 274 276 285 265 353 357 291 301 304 293 304 247 213 241 263 261 303 34 330 338 344 343 324 302 291 264 216 19 41 305 42 347 324 303 295 295 281 246 217 211 253 266 208 242 250 261 181 186 196 182 199 207 216 162 203 206 204 202 216 210 202 236 200 216 206 221 344 210 196 222 220 265 254 3 108 201 224 243 255 260 251 197 174 181 196 202
300 280 297 276 271 297 282 151 304 292 287 301 300 246 231 238 260 39 306 32 348 354 324 319 281 270 271 324 332 130 61 357 308 310 306 292 292 284 279 328 336 273 246 244 286 268 228 247 196 204 202 192 195 196 207 177 216 180 196 217 210 210 233 251 251 236 258 210 229 143 252 280 318 283 268 260 232 231 211 226 233 239 215 179 197 195 198 209
284 288 276 284 277 274 127 195 217 267 271 285 259 264 243 286 313 342 335 339 334 321 315 332 326 94 346 301 330 331 356 352 307 28 307 350 307 181 6 36 76 49 56 24 325 348 331 301 354 54 233 241 214 203 201 203 197 174 207 202 201 229 279 224 238 220 217 222 220 168 197 205 204 265 214 228 236 230 224 221 220 216 216 212 221 214 212 210
283 271 264 259 251 225 159 165 223 239 261 249 246 254 283 273 274 293 308 308 330 324 310 281 269 134 267 274 286 344 346 24 316 30 296 8 266 81 42 24 53 58 53 40 275 337 358 319 293 224 216 227 244 218 241 233 218 226 216 162 188 183 226 204 268 229 218 223 230 217 196 206 198 242 284 265 232 220 225 216 219 217 208 219 226 232 229 211
264 279 278 224 167 148 158 166 216 221 242 247 245 281 252 251 286 276 304 298 288 298 288 268 260 258 345 303 289 291 301 284 332 307 332 241 227 112 22 57 345 64 57 30 36 294 25 310 285 15 291 258 194 183 222 207 232 358 53 279 217 235 215 204 216 295 251 249 224 235 202 233 190 231 240 248 246 232 249 196 213 215 218 218 219 222 211 195
254 263 243 141 136 155 149 185 214 234 233 235 240 239 302 308 275 280 273 273 275 261 265 281 275 279 277 284 313 296 294 277 279 276 238 311 294 312 314 85 216 21 8 97 108 299 312 248 287 313 335 331 238 191 209 201 201 211 228 233 233 226 122 70 223 216 214 245 235 241 232 222 209 212 233 246 251 247 243 265 210 211 220 218 207 199 204 195
219 231 227 153 147 145 151 168 206 219 226 242 231 234 250 256 284 263 272 278 275 248 254 268 276 267 283 287 274 277 283 270 271 263 257 273 255 313 166 145 340 349 172 146 100 327 295 283 271 290 317 313 285 297 224 206 198 205 200 215 216 205 225 236 246 219 234 224 226 232 245 241 215 206 239 256 258 251 240 235 230 211 208 195 175 200 192 191
203 245 186 163 152 153 149 212 218 197 228 220 223 207 241 230 244 248 263 257 245 244 243 248 242 257 260 259 265 271 267 265 260 265 242 261 239 222 295 319 313 329 356 320 314 351 152 273 284 291 263 270 303 302 296 326 298 271 220 214 204 213 209 218 225 206 228 235 270 263 290 241 157 100 354 326 340 327 287 225 216 199 114 91 85 71 54 105
206 244 141 164 163 159 177 234 212 220 225 223 219 240 218 234 223 214 229 229 237 226 240 232 228 238 237 236 247 253 252 256 240 251 265 264 263 255 291 298 294 288 292 293 245 230 278 340 261 258 288 283 278 271 264 321 4 293 270 297 253 227 211 220 221 224 230 209 218 236 244 251 274 303 28 323 333 325 35 35 153 99 85 79 77 71 79 53
230 237 225 179 168 170 183 212 221 214 226 230 214 223 207 222 216 231 228 218 209 216 214 219 240 219 247 225 239 244 236 277 208 238 260 257 264 272 273 285 311 304 289 283 63 292 350 267 298 330 320 310 311 261 279 117 54 26 344 339 337 330 290 257 269 249 247 221 231 211 234 220 243 275 320 319 5 53 34 31 65 88 68 69 65 56 41 27
262 254 206 183 188 179 208 197 225 218 234 224 216 220 216 229 216 218 213 219 208 216 213 229 222 226 235 223 238 236 234 232 273 226 260 270 279 297 289 277 318 337 76 267 302 286 172 296 2 314 286 282 284 243 132 359 354 318 356 318 308 350 358 349 252 224 243 213 225 237 251 284 301 248 244 68 95 66 37 53 42 65 102 91 71 60 47 56
188 276 150 204 178 226 248 210 218 217 231 233 236 218 197 221 215 208 210 230 215 225 211 224 224 223 239 242 244 239 245 240 242 261 232 252 259 244 246 258 182 245 287 298 300 321 198 237 215 229 256 261 273 296 298 351 331 331 300 299 309 328 317 275 292 295 250 232 232 225 229 344 283 280 302 200 174 115 134 90 85 66 64 72 72 76 109 122
230 229 163 226 183 222 226 206 219 217 229 216 238 158 212 204 209 218 191 225 211 219 228 214 219 209 230 220 232 236 230 242 237 250 250 251 246 253 264 274 281 281 280 275 260 221 251 254 233 231 233 245 263 268 279 294 287 291 302 297 291 287 299 297 285 273 317 331 261 219 213 221 238 253 264 281 267 150 166 138 134 139 148 153 158 152 121 91
248 208 199 195 210 227 214 224 209 223 228 212 230 179 211 209 199 210 197 209 191 200 198 224 216 225 229 220 215 225 217 227 224 236 242 238 249 248 267 257 253 248 254 257 243 202 234 254 231 224 249 253 249 257 264 275 273 277 272 268 280 288 284 287 287 286 309 265 287 323 307 250 228 239 249 256 266 274 102 139 145 142 158 142 129 145 176 179
228 263 227 133 228 234 235 229 204 215 225 217 234 207 214 201 211 202 191 198 200 213 195 217 207 217 225 224 216 231 215 232 229 225 228 236 223 243 260 283 267 251 239 256 223 190 221 247 256 241 252 251 256 262 271 270 273 272 272 276 283 285 281 281 282 275 260 265 281 284 279 282 280 250 239 249 257 275 297 281 104 97 179 182 176 182 174 179
228 226 255 205 227 245 249 248 217 212 229 214 223 201 207 211 217 211 205 190 217 212 202 221 217 212 219 218 215 224 223 219 219 224 215 218 232 210 245 230 271 267 324 290 138 325 139 271 283 314 297 273 283 291 287 285 284 278 271 271 268 266 277 272 268 268 268 271 268 260 280 288 277 280 275 268 279 292 288 287 290 287 267 222 204 175 164 166
255 235 256 255 240 236 247 242 239 225 231 214 218 200 217 214 221 207 216 198 207 208 191 212 215 217 216 216 217 227 231 227 223 221 219 200 210 191 197 207 175 237 240 297 40 238 177 264 298 305 301 279 273 276 276 273 262 257 269 268 263 272 273 264 250 241 253 277 285 291 289 287 295 281 281 279 278 274 277 282 285 290 297 304 299 256 249 210
260 255 244 244 254 202 236 230 240 249 238 196 210 219 213 219 215 210 238 212 214 216 210 209 212 208 215 216 222 227 233 229 220 218 216 220 220 229 222 232 221 230 243 238 225 238 206 264 276 288 274 272 282 273 281 295 296 273 255 261 270 264 252 263 259 257 257 252 259 264 265 268 309 320 311 303 291 270 264 268 279 281 276 281 290 295 290 276